| time (UTC) | temp C | wind direction | speed KPH | gust KPH | rain 1hr cm | rain 24hr cm | rain mn cm | humidity % | barometer mb |
| 20260504151003 | 15 | 182 | 6.4 | 19.3 | 0.05 | 0.51 | 0.51 | 84 | 1009.8 |
| 20260504150503 | 13 | 178 | 6.4 | 20.9 | 0.10 | 0.51 | 0.51 | 87 | 1009.8 |
| 20260504141003 | 15 | 249 | 9.7 | 33.8 | 0.20 | 0.46 | 0.46 | 79 | 1010.1 |
| 20260504140524 | 15 | 259 | 11.3 | 29.0 | 0.15 | 0.41 | 0.41 | 77 | 1010.0 |
| 20260504130503 | 12 | 238 | 3.2 | 12.9 | 0.05 | 0.25 | 0.25 | 85 | 1011.5 |
| 20260504110503 | 11 | 178 | 4.8 | 12.9 | 0.05 | 0.20 | 0.20 | 89 | 1010.4 |
| 20260504100503 | 10 | 204 | 4.8 | 16.1 | 0.15 | 0.15 | 0.15 | 85 | 1011.5 |
| 20260504082003 | 12 | 192 | 3.2 | 11.3 | 0.00 | 0.00 | 0.00 | 65 | 1011.7 |
| 20260504081524 | 12 | 189 | 3.2 | 11.3 | 0.00 | 0.00 | 0.00 | 64 | 1011.7 |
| 20260504081003 | 12 | 192 | 3.2 | 11.3 | 0.00 | 0.00 | 0.00 | 64 | 1011.7 |
| 20260504080503 | 12 | 189 | 3.2 | 11.3 | 0.00 | 0.00 | 0.00 | 64 | 1011.9 |
| 20260504050503 | 12 | 179 | 3.2 | 9.7 | 0.00 | 0.00 | 0.00 | 60 | 1013.4 |
| 20260504050003 | 12 | 184 | 3.2 | 9.7 | 0.00 | 0.00 | 0.00 | 60 | 1013.4 |
| 20260504045503 | 12 | 181 | 3.2 | 9.7 | 0.00 | 0.00 | 0.00 | 60 | 1013.3 |
| 20260504045003 | 12 | 184 | 3.2 | 9.7 | 0.00 | 0.00 | 0.00 | 59 | 1013.4 |
| 20260504044503 | 12 | 191 | 4.8 | 9.7 | 0.00 | 0.00 | 0.00 | 59 | 1013.5 |
| 20260504044003 | 12 | 191 | 3.2 | 11.3 | 0.00 | 0.00 | 0.00 | 59 | 1013.4 |
| 20260504043503 | 12 | 193 | 3.2 | 11.3 | 0.00 | 0.00 | 0.00 | 58 | 1013.5 |
| 20260504043003 | 12 | 189 | 3.2 | 9.7 | 0.00 | 0.00 | 0.00 | 59 | 1013.5 |
| 20260504042503 | 12 | 179 | 3.2 | 9.7 | 0.00 | 0.00 | 0.00 | 57 | 1013.5 |
| 20260504042003 | 12 | 182 | 3.2 | 8.0 | 0.00 | 0.00 | 0.00 | 57 | 1013.5 |
| 20260504041503 | 12 | 188 | 3.2 | 8.0 | 0.00 | 0.00 | 0.00 | 56 | 1013.7 |
| 20260504041003 | 12 | 191 | 3.2 | 9.7 | 0.00 | 0.00 | 0.00 | 57 | 1013.8 |
| 20260504040503 | 13 | 196 | 3.2 | 9.7 | 0.00 | 0.00 | 0.00 | 55 | 1013.8 |
| 20260504040003 | 13 | 191 | 3.2 | 11.3 | 0.00 | 0.00 | 0.00 | 55 | 1013.9 |
| 20260504035503 | 13 | 188 | 3.2 | 11.3 | 0.00 | 0.00 | 0.00 | 55 | 1013.9 |
| 20260504035003 | 13 | 192 | 3.2 | 11.3 | 0.00 | 0.00 | 0.00 | 55 | 1014.1 |
| 20260504034503 | 13 | 191 | 3.2 | 9.7 | 0.00 | 0.00 | 0.00 | 56 | 1014.0 |
| 20260504034003 | 13 | 192 | 3.2 | 9.7 | 0.00 | 0.00 | 0.00 | 56 | 1014.1 |
| 20260504033503 | 13 | 191 | 3.2 | 9.7 | 0.00 | 0.00 | 0.00 | 56 | 1014.1 |
| 20260504033003 | 13 | 193 | 3.2 | 11.3 | 0.00 | 0.00 | 0.00 | 56 | 1014.1 |
| 20260504032503 | 13 | 196 | 3.2 | 12.9 | 0.00 | 0.00 | 0.00 | 57 | 1013.9 |
| 20260504032003 | 13 | 193 | 4.8 | 12.9 | 0.00 | 0.00 | 0.00 | 57 | 1013.8 |
| 20260504031503 | 13 | 188 | 3.2 | 8.0 | 0.00 | 0.00 | 0.00 | 57 | 1013.9 |
| 20260504031003 | 12 | 191 | 3.2 | 8.0 | 0.00 | 0.00 | 0.00 | 58 | 1014.0 |
| 20260504030524 | 12 | 196 | 3.2 | 9.7 | 0.00 | 0.00 | 0.00 | 59 | 1014.3 |
| 20260504030003 | 12 | 193 | 3.2 | 9.7 | 0.00 | 0.00 | 0.00 | 58 | 1014.4 |
| 20260504025524 | 12 | 192 | 3.2 | 9.7 | 0.00 | 0.00 | 0.00 | 59 | 1014.4 |
| 20260504025003 | 12 | 190 | 3.2 | 8.0 | 0.00 | 0.00 | 0.00 | 58 | 1014.5 |
| 20260504024503 | 12 | 194 | 1.6 | 6.4 | 0.00 | 0.00 | 0.00 | 59 | 1014.5 |
| 20260504024003 | 12 | 192 | 1.6 | 6.4 | 0.00 | 0.00 | 0.00 | 58 | 1014.5 |
| 20260504023503 | 12 | 192 | 1.6 | 6.4 | 0.00 | 0.00 | 0.00 | 58 | 1014.5 |
| 20260504023003 | 12 | 195 | 1.6 | 6.4 | 0.00 | 0.00 | 0.00 | 58 | 1014.6 |
| 20260504022503 | 12 | 189 | 1.6 | 4.8 | 0.00 | 0.00 | 0.00 | 57 | 1014.7 |
| 20260504022003 | 13 | 173 | 0.0 | 3.2 | 0.00 | 0.00 | 0.00 | 57 | 1014.8 |
| 20260504021503 | 13 | 165 | 1.6 | 3.2 | 0.00 | 0.00 | 0.00 | 58 | 1014.7 |
| 20260504021003 | 13 | 168 | 1.6 | 4.8 | 0.00 | 0.00 | 0.00 | 57 | 1014.7 |
| 20260504020503 | 13 | 175 | 0.0 | 4.8 | 0.00 | 0.00 | 0.00 | 56 | 1014.6 |
| 20260504020003 | 13 | 177 | 0.0 | 3.2 | 0.00 | 0.00 | 0.00 | 56 | 1014.6 |
| 20260504015503 | 13 | 193 | 1.6 | 3.2 | 0.00 | 0.00 | 0.00 | 55 | 1014.6 |
| 20260504015003 | 13 | 193 | 1.6 | 4.8 | 0.00 | 0.00 | 0.00 | 55 | 1014.6 |
| 20260504014503 | 13 | 191 | 1.6 | 4.8 | 0.00 | 0.00 | 0.00 | 55 | 1014.5 |
| 20260504014003 | 13 | 210 | 1.6 | 4.8 | 0.00 | 0.00 | 0.00 | 55 | 1014.5 |
| 20260504013524 | 13 | 215 | 1.6 | 6.4 | 0.00 | 0.00 | 0.00 | 54 | 1014.5 |
| 20260504013003 | 13 | 216 | 1.6 | 6.4 | 0.00 | 0.00 | 0.00 | 54 | 1014.4 |
| 20260504012503 | 13 | 226 | 1.6 | 6.4 | 0.00 | 0.00 | 0.00 | 54 | 1014.4 |
| 20260504012003 | 13 | 222 | 1.6 | 6.4 | 0.00 | 0.00 | 0.00 | 53 | 1014.2 |
| 20260504011524 | 13 | 206 | 1.6 | 6.4 | 0.00 | 0.00 | 0.00 | 54 | 1014.0 |
| 20260504011024 | 13 | 206 | 3.2 | 8.0 | 0.00 | 0.00 | 0.00 | 52 | 1014.1 |
| 20260504010503 | 13 | 215 | 3.2 | 8.0 | 0.00 | 0.00 | 0.00 | 53 | 1014.0 |
| 20260504010024 | 13 | 216 | 1.6 | 8.0 | 0.00 | 0.00 | 0.00 | 52 | 1013.9 |
| 20260504005503 | 13 | 203 | 1.6 | 11.3 | 0.00 | 0.00 | 0.00 | 52 | 1013.8 |
| 20260504005003 | 14 | 200 | 3.2 | 11.3 | 0.00 | 0.00 | 0.00 | 51 | 1013.7 |
| 20260504004503 | 14 | 201 | 3.2 | 9.7 | 0.00 | 0.00 | 0.00 | 51 | 1013.6 |
| 20260504004003 | 14 | 200 | 3.2 | 9.7 | 0.00 | 0.00 | 0.00 | 50 | 1013.6 |
| 20260504003503 | 14 | 193 | 3.2 | 9.7 | 0.00 | 0.00 | 0.00 | 50 | 1013.6 |
| 20260504003003 | 15 | 191 | 3.2 | 8.0 | 0.00 | 0.00 | 0.00 | 49 | 1013.5 |
| 20260504002503 | 15 | 196 | 3.2 | 8.0 | 0.00 | 0.00 | 0.00 | 48 | 1013.5 |
| 20260504002003 | 15 | 195 | 3.2 | 11.3 | 0.00 | 0.00 | 0.00 | 47 | 1013.6 |
| 20260504001503 | 15 | 200 | 3.2 | 11.3 | 0.00 | 0.00 | 0.00 | 47 | 1013.6 |
| 20260504001003 | 15 | 212 | 3.2 | 11.3 | 0.00 | 0.00 | 0.00 | 47 | 1013.7 |
| 20260504000503 | 15 | 208 | 3.2 | 9.7 | 0.00 | 0.00 | 0.00 | 47 | 1013.8 |
| 20260504000003 | 15 | 203 | 3.2 | 8.0 | 0.00 | 0.00 | 0.00 | 46 | 1013.9 |
| 20260503235524 | 15 | 203 | 3.2 | 9.7 | 0.00 | 0.00 | 0.00 | 47 | 1013.8 |
| 20260503235003 | 16 | 200 | 1.6 | 9.7 | 0.00 | 0.00 | 0.00 | 45 | 1013.7 |
| 20260503234503 | 16 | 202 | 1.6 | 9.7 | 0.00 | 0.00 | 0.00 | 46 | 1013.9 |
| 20260503234024 | 16 | 206 | 1.6 | 9.7 | 0.00 | 0.00 | 0.00 | 45 | 1014.1 |
| 20260503233503 | 16 | 222 | 3.2 | 8.0 | 0.00 | 0.00 | 0.00 | 46 | 1014.1 |
| 20260503233003 | 16 | 226 | 3.2 | 8.0 | 0.00 | 0.00 | 0.00 | 43 | 1014.1 |
| 20260503232503 | 16 | 223 | 3.2 | 8.0 | 0.00 | 0.00 | 0.00 | 43 | 1014.1 |
| 20260503232024 | 16 | 231 | 4.8 | 11.3 | 0.00 | 0.00 | 0.00 | 44 | 1014.3 |
| 20260503231503 | 16 | 236 | 6.4 | 14.5 | 0.00 | 0.00 | 0.00 | 41 | 1014.4 |
| 20260503231003 | 16 | 236 | 6.4 | 16.1 | 0.00 | 0.00 | 0.00 | 42 | 1014.5 |
| 20260503230524 | 16 | 238 | 6.4 | 16.1 | 0.00 | 0.00 | 0.00 | 41 | 1014.5 |
| 20260503230003 | 16 | 230 | 6.4 | 14.5 | 0.00 | 0.00 | 0.00 | 40 | 1014.5 |
| 20260503225503 | 17 | 212 | 4.8 | 12.9 | 0.00 | 0.00 | 0.00 | 39 | 1014.7 |
| 20260503225003 | 17 | 212 | 3.2 | 12.9 | 0.00 | 0.00 | 0.00 | 42 | 1014.5 |
| 20260503224503 | 17 | 212 | 4.8 | 12.9 | 0.00 | 0.00 | 0.00 | 43 | 1014.6 |
| 20260503224003 | 17 | 223 | 6.4 | 16.1 | 0.00 | 0.00 | 0.00 | 41 | 1014.8 |
| 20260503223503 | 17 | 233 | 6.4 | 16.1 | 0.00 | 0.00 | 0.00 | 40 | 1015.0 |
| 20260503223003 | 17 | 232 | 4.8 | 14.5 | 0.00 | 0.00 | 0.00 | 42 | 1015.0 |
| 20260503222524 | 17 | 230 | 4.8 | 11.3 | 0.00 | 0.00 | 0.00 | 40 | 1015.1 |
| 20260503222024 | 16 | 234 | 6.4 | 17.7 | 0.00 | 0.00 | 0.00 | 40 | 1015.0 |
| 20260503221503 | 17 | 227 | 8.0 | 20.9 | 0.00 | 0.00 | 0.00 | 37 | 1015.0 |
| 20260503221003 | 17 | 225 | 8.0 | 20.9 | 0.00 | 0.00 | 0.00 | 36 | 1015.1 |
| 20260503220503 | 17 | 229 | 6.4 | 17.7 | 0.00 | 0.00 | 0.00 | 38 | 1015.2 |
| 20260503220003 | 17 | 226 | 8.0 | 22.5 | 0.00 | 0.00 | 0.00 | 38 | 1015.3 |
| 20260503215503 | 17 | 224 | 8.0 | 22.5 | 0.00 | 0.00 | 0.00 | 39 | 1015.2 |
| 20260503215003 | 17 | 220 | 8.0 | 16.1 | 0.00 | 0.00 | 0.00 | 37 | 1015.3 |
| 20260503214503 | 17 | 222 | 8.0 | 20.9 | 0.00 | 0.00 | 0.00 | 38 | 1015.3 |
| 20260503214003 | 17 | 226 | 8.0 | 20.9 | 0.00 | 0.00 | 0.00 | 35 | 1015.1 |
| 20260503213524 | 17 | 230 | 6.4 | 19.3 | 0.00 | 0.00 | 0.00 | 37 | 1015.1 |
| 20260503213003 | 17 | 230 | 8.0 | 24.1 | 0.00 | 0.00 | 0.00 | 35 | 1015.1 |
| 20260503212503 | 17 | 225 | 9.7 | 22.5 | 0.00 | 0.00 | 0.00 | 36 | 1015.5 |
| 20260503212003 | 17 | 230 | 9.7 | 22.5 | 0.00 | 0.00 | 0.00 | 35 | 1015.3 |
| 20260503211503 | 17 | 227 | 8.0 | 22.5 | 0.00 | 0.00 | 0.00 | 34 | 1015.5 |
| 20260503211024 | 17 | 210 | 6.4 | 17.7 | 0.00 | 0.00 | 0.00 | 39 | 1015.5 |
| 20260503210503 | 17 | 209 | 8.0 | 24.1 | 0.00 | 0.00 | 0.00 | 38 | 1015.3 |
| 20260503210003 | 17 | 204 | 8.0 | 24.1 | 0.00 | 0.00 | 0.00 | 36 | 1015.4 |
| 20260503205503 | 17 | 211 | 8.0 | 24.1 | 0.00 | 0.00 | 0.00 | 37 | 1015.6 |
| 20260503205003 | 17 | 224 | 9.7 | 24.1 | 0.00 | 0.00 | 0.00 | 38 | 1015.5 |
| 20260503204503 | 17 | 217 | 8.0 | 22.5 | 0.00 | 0.00 | 0.00 | 39 | 1015.5 |
| 20260503204003 | 17 | 203 | 8.0 | 22.5 | 0.00 | 0.00 | 0.00 | 39 | 1015.7 |
| 20260503203503 | 17 | 193 | 8.0 | 22.5 | 0.00 | 0.00 | 0.00 | 38 | 1015.8 |
| 20260503203024 | 17 | 209 | 8.0 | 22.5 | 0.00 | 0.00 | 0.00 | 40 | 1016.0 |
| 20260503202503 | 17 | 228 | 6.4 | 19.3 | 0.00 | 0.00 | 0.00 | 41 | 1016.3 |
| 20260503202003 | 17 | 203 | 6.4 | 19.3 | 0.00 | 0.00 | 0.00 | 39 | 1016.4 |
| 20260503201503 | 17 | 198 | 6.4 | 19.3 | 0.00 | 0.00 | 0.00 | 41 | 1016.5 |
| 20260503201003 | 17 | 218 | 6.4 | 25.7 | 0.00 | 0.00 | 0.00 | 42 | 1016.7 |
| 20260503200503 | 17 | 226 | 6.4 | 25.7 | 0.00 | 0.00 | 0.00 | 41 | 1016.8 |
| 20260503200003 | 17 | 230 | 6.4 | 22.5 | 0.00 | 0.00 | 0.00 | 40 | 1016.9 |
| 20260503195503 | 17 | 236 | 6.4 | 24.1 | 0.00 | 0.00 | 0.00 | 37 | 1017.0 |
| 20260503195024 | 17 | 231 | 6.4 | 24.1 | 0.00 | 0.00 | 0.00 | 38 | 1017.0 |
| 20260503194503 | 17 | 216 | 8.0 | 20.9 | 0.00 | 0.00 | 0.00 | 45 | 1017.2 |
| 20260503194003 | 17 | 223 | 8.0 | 24.1 | 0.00 | 0.00 | 0.00 | 40 | 1017.1 |
| 20260503193503 | 17 | 235 | 8.0 | 24.1 | 0.00 | 0.00 | 0.00 | 40 | 1017.2 |
| 20260503193003 | 16 | 223 | 8.0 | 24.1 | 0.00 | 0.00 | 0.00 | 37 | 1017.3 |
| 20260503192503 | 17 | 208 | 8.0 | 24.1 | 0.00 | 0.00 | 0.00 | 40 | 1017.3 |
| 20260503192003 | 16 | 209 | 6.4 | 20.9 | 0.00 | 0.00 | 0.00 | 39 | 1017.4 |
| 20260503191503 | 17 | 210 | 6.4 | 20.9 | 0.00 | 0.00 | 0.00 | 39 | 1017.6 |
| 20260503191003 | 16 | 200 | 6.4 | 16.1 | 0.00 | 0.00 | 0.00 | 46 | 1017.6 |
| 20260503190524 | 16 | 198 | 8.0 | 16.1 | 0.00 | 0.00 | 0.00 | 38 | 1017.7 |
| 20260503190003 | 16 | 207 | 8.0 | 19.3 | 0.00 | 0.00 | 0.00 | 41 | 1017.8 |
| 20260503185503 | 16 | 221 | 6.4 | 19.3 | 0.00 | 0.00 | 0.00 | 42 | 1017.8 |
| 20260503185003 | 16 | 225 | 6.4 | 24.1 | 0.00 | 0.00 | 0.00 | 45 | 1017.8 |
| 20260503184503 | 16 | 221 | 8.0 | 24.1 | 0.00 | 0.00 | 0.00 | 39 | 1017.9 |
| 20260503184024 | 16 | 224 | 6.4 | 16.1 | 0.00 | 0.00 | 0.00 | 43 | 1017.9 |
| 20260503183524 | 16 | 230 | 8.0 | 27.4 | 0.00 | 0.00 | 0.00 | 42 | 1018.0 |
| 20260503183003 | 16 | 218 | 9.7 | 27.4 | 0.00 | 0.00 | 0.00 | 40 | 1018.0 |
| 20260503182503 | 16 | 203 | 8.0 | 19.3 | 0.00 | 0.00 | 0.00 | 39 | 1018.1 |
| 20260503182024 | 16 | 213 | 8.0 | 17.7 | 0.00 | 0.00 | 0.00 | 42 | 1018.2 |
| 20260503181504 | 16 | 216 | 6.4 | 19.3 | 0.00 | 0.00 | 0.00 | 40 | 1018.2 |
| 20260503181003 | 16 | 201 | 6.4 | 19.3 | 0.00 | 0.00 | 0.00 | 45 | 1018.4 |
| 20260503180503 | 16 | 201 | 6.4 | 17.7 | 0.00 | 0.00 | 0.00 | 43 | 1018.5 |
| 20260503180003 | 15 | 215 | 4.8 | 17.7 | 0.00 | 0.00 | 0.00 | 40 | 1018.6 |
| 20260503175503 | 15 | 205 | 4.8 | 14.5 | 0.00 | 0.00 | 0.00 | 42 | 1018.6 |
| 20260503175003 | 15 | 185 | 4.8 | 12.9 | 0.00 | 0.00 | 0.00 | 42 | 1018.6 |
| 20260503174503 | 15 | 190 | 4.8 | 14.5 | 0.00 | 0.00 | 0.00 | 44 | 1018.8 |
| 20260503174003 | 15 | 209 | 6.4 | 19.3 | 0.00 | 0.00 | 0.00 | 39 | 1018.8 |
| 20260503173503 | 15 | 214 | 6.4 | 19.3 | 0.00 | 0.00 | 0.00 | 38 | 1019.0 |
| 20260503173003 | 15 | 195 | 6.4 | 19.3 | 0.00 | 0.00 | 0.00 | 42 | 1019.0 |
| 20260503172503 | 15 | 203 | 6.4 | 19.3 | 0.00 | 0.00 | 0.00 | 41 | 1019.2 |
| 20260503172003 | 15 | 208 | 6.4 | 19.3 | 0.00 | 0.00 | 0.00 | 41 | 1019.3 |
| 20260503171503 | 15 | 207 | 4.8 | 17.7 | 0.00 | 0.00 | 0.00 | 44 | 1019.3 |
| 20260503171024 | 15 | 194 | 6.4 | 12.9 | 0.00 | 0.00 | 0.00 | 42 | 1019.4 |
| 20260503170503 | 15 | 187 | 4.8 | 12.9 | 0.00 | 0.00 | 0.00 | 38 | 1019.6 |